Location: Berlin
(38.3226°N, 75.2177°W)
Time: 16:13:31
(UTC+00:00)

Cosmos 1980 Rocket - Pass Details

Date: 26 October 2020
Orbit: 831 x 848 km, 71.0° (Epoch: 25 November)

Event Time Altitude Azimuth Distance (km) Brightness Sun altitude
Rises 10:13:35 0° 339° (NNW) 3,381 5.1 -13.9°
Reaches altitude 10° 10:16:03 10° 342° (NNW) 2,444 4.4 -13.4°
Maximum altitude 10:21:38 70° 66° (ENE) 882 2.5 -12.3°
Drops below altitude 10° 10:27:12 10° 150° (SSE) 2,434 5.1 -11.2°
Sets 10:29:38 0° 153° (SSE) 3,366 5.9 -10.8°
